Weather History for Rolla, MO

Change the Weather History Date:

Friday, July 26, 2013

  Actual Average Record
Temperature  
Mean Temperature 68 °F 78 °F  
Max Temperature 71 °F 89 °F 101 °F (1999)
Min Temperature 65 °F 67 °F 54 °F (2004)
Degree Days  
Heating Degree Days 0 0  
Month to date heating degree days 0 0  
Since 1 June heating degree days 17 14  
Since 1 July heating degree days 0 0  
Cooling Degree Days 3 13  
Month to date cooling degree days 263 319  
Year to date cooling degree days 587 661  
Since 1 June cooling degree days 480 554  
Growing Degree Days 18 (Base 50)    
Moisture  
Dew Point 65 °F    
Average Humidity 85    
Maximum Humidity 100    
Minimum Humidity 70    
Precipitation  
Precipitation 0.24 in 0.14 in 2.21 in (1968)
Month to date precipitation 3.04 3.76  
Year to date precipitation 28.13 25.20  
Sea Level Pressure  
Sea Level Pressure 30.02 in    
Wind  
Wind Speed 7 mph (SW)    
Max Wind Speed 17 mph    
Max Gust Speed 24 mph    
Visibility 7 miles    
Events Fog , Rain    
T = Trace of Precipitation, MM = Missing Value Source: NWS Daily Summary

Daily Weather History Graph

Daily Weather History Graph

Search for Another Location

Airport:

Trip Planner

Search our weather history database for the weather conditions in past years. The results will help you decide how hot, cold, wet, or windy it might be!

Date:

Astronomy

Jul. 26, 2013 Rise Set
Actual Time 6:04 AM CDT 8:21 PM CDT
Civil Twilight 5:35 AM CDT 8:51 PM CDT
Nautical Twilight 4:58 AM CDT 9:27 PM CDT
Astronomical Twilight 4:18 AM CDT 10:07 PM CDT
Moon 10:41 PM CDT (7/26) 10:36 AM CDT (7/26)
Length of Visible Light 15h 16m
Length of Day
14h 16m
Waning Gibbous, 80% of the Moon is Illuminated
Jul 26
Waning Gibbous
Jul 29
Last Quarter
Aug 6
New
Aug 14
First Quarter
Aug 20
Full

Hourly Weather History & Observations

Time (CDT) Temp. Dew Point Humidity Pressure Visibility Wind Dir Wind Speed Gust Speed Precip Events Conditions
12:53 AM 69.1 °F 59.0 °F 70% 30.04 in 10.0 mi SE 6.9 mph - N/A   Partly Cloudy
1:53 AM 68.0 °F 59.0 °F 73% 30.01 in 10.0 mi ESE 8.1 mph - N/A   Clear
2:53 AM 66.0 °F 57.9 °F 75% 30.02 in 10.0 mi South 5.8 mph - N/A   Clear
3:53 AM 64.9 °F 59.0 °F 81% 30.00 in 10.0 mi SSE 5.8 mph - N/A   Scattered Clouds
4:53 AM 66.9 °F 59.0 °F 76% 30.01 in 10.0 mi South 8.1 mph - N/A   Mostly Cloudy
5:53 AM 66.9 °F 59.0 °F 76% 30.00 in 10.0 mi South 6.9 mph - N/A   Mostly Cloudy
6:53 AM 68.0 °F 60.1 °F 76% 30.01 in 10.0 mi South 6.9 mph - N/A   Overcast
7:53 AM 69.1 °F 61.0 °F 75% 30.02 in 10.0 mi South 6.9 mph - N/A   Overcast
8:53 AM 70.0 °F 62.1 °F 76% 30.02 in 10.0 mi South 6.9 mph - N/A   Overcast
9:53 AM 71.1 °F 63.0 °F 75% 30.02 in 10.0 mi South 9.2 mph - N/A   Mostly Cloudy
10:53 AM 66.9 °F 64.0 °F 90% 30.06 in 7.0 mi NW 5.8 mph - 0.01 in Rain Light Rain
11:22 AM 66.2 °F 64.4 °F 94% 30.08 in 2.5 mi NW 4.6 mph - 0.07 in Rain Heavy Rain
11:53 AM 66.9 °F 66.0 °F 97% 30.06 in 2.0 mi West 3.5 mph - 0.14 in Rain Rain
12:07 PM 66.2 °F 66.2 °F 100% 30.08 in 4.0 mi WSW 3.5 mph - 0.02 in Rain Light Rain
12:53 PM 69.1 °F 66.9 °F 93% 30.04 in 9.0 mi SSW 4.6 mph - 0.04 in Rain Light Rain
1:14 PM 68.0 °F 66.2 °F 94% 30.06 in 10.0 mi SSW 9.2 mph - 0.00 in   Overcast
1:30 PM 68.0 °F 66.2 °F 94% 30.06 in 8.0 mi SSW 8.1 mph - 0.00 in Rain Light Rain
1:53 PM 68.0 °F 66.9 °F 96% 30.04 in 5.0 mi SSW 9.2 mph - 0.01 in Rain Light Rain
2:10 PM 68.0 °F 66.2 °F 94% 30.06 in 5.0 mi SW 5.8 mph - 0.02 in Rain Light Rain
2:35 PM 69.8 °F 68.0 °F 94% 30.05 in 8.0 mi SW 8.1 mph - 0.03 in Rain Light Rain
2:45 PM 69.8 °F 68.0 °F 94% 30.05 in 10.0 mi SW 6.9 mph - 0.03 in Rain Light Rain
2:53 PM 69.1 °F 68.0 °F 96% 30.03 in 9.0 mi SW 8.1 mph - 0.03 in Rain Light Rain
3:53 PM 69.1 °F 68.0 °F 96% 30.03 in 9.0 mi SSW 6.9 mph - 0.00 in Rain Light Rain
4:53 PM 69.1 °F 66.9 °F 93% 30.03 in 10.0 mi SSW 8.1 mph - 0.00 in   Overcast
5:00 PM 69.8 °F 66.2 °F 88% 30.05 in 10.0 mi SW 8.1 mph - N/A   Overcast
5:30 PM 69.8 °F 68.0 °F 94% 30.04 in 10.0 mi SSW 4.6 mph - N/A   Overcast
5:53 PM 69.1 °F 66.9 °F 93% 30.01 in 10.0 mi South 4.6 mph - N/A   Overcast
6:28 PM 69.8 °F 68.0 °F 94% 30.02 in 10.0 mi SSW 6.9 mph - N/A   Overcast
6:53 PM 71.1 °F 69.1 °F 93% 29.98 in 10.0 mi SSW 8.1 mph - N/A   Overcast
7:13 PM 69.8 °F 68.0 °F 94% 30.00 in 10.0 mi SW 6.9 mph - N/A   Mostly Cloudy
7:25 PM 69.8 °F 68.0 °F 94% 30.00 in 10.0 mi SW 8.1 mph - N/A   Partly Cloudy
7:53 PM 69.1 °F 66.9 °F 93% 29.97 in 10.0 mi SW 4.6 mph - N/A   Clear
8:24 PM 66.2 °F 66.2 °F 100% 29.99 in 7.0 mi SW 4.6 mph - N/A   Partly Cloudy
8:53 PM 66.0 °F 66.0 °F 100% 29.96 in 4.0 mi SW 5.8 mph - N/A   Partly Cloudy
9:28 PM 66.2 °F 66.2 °F 100% 30.00 in 1.8 mi SW 4.6 mph - N/A   Scattered Clouds
9:32 PM 66.2 °F 66.2 °F 100% 30.00 in 0.8 mi SW 3.5 mph - N/A   Mist
9:40 PM 66.2 °F 66.2 °F 100% 30.00 in 0.2 mi SW 4.6 mph - N/A Fog Fog
9:53 PM 66.0 °F 66.0 °F 100% 29.98 in 0.2 mi SW 4.6 mph - N/A Fog Fog
10:25 PM 66.2 °F 66.2 °F 100% 30.00 in 0.8 mi SW 4.6 mph - N/A   Mist
10:33 PM 66.2 °F 66.2 °F 100% 30.00 in 0.5 mi SW 4.6 mph - N/A Fog Fog
10:48 PM 64.4 °F 64.4 °F 100% 30.00 in 1.0 mi SW 4.6 mph - N/A   Mist
10:53 PM 64.9 °F 64.9 °F 100% 29.98 in 2.0 mi SW 5.8 mph - N/A   Scattered Clouds
11:01 PM 64.4 °F 64.4 °F 100% 30.00 in 4.0 mi WSW 5.8 mph - N/A   Partly Cloudy
11:53 PM 66.0 °F 66.0 °F 100% 29.99 in 5.0 mi West 6.9 mph - 0.01 in   Partly Cloudy